TimePDT,TemperatureF,Dew PointF,Humidity,Sea Level PressureIn,VisibilityMPH,Wind Direction,Wind SpeedMPH,Gust SpeedMPH,PrecipitationIn,Events,Conditions,WindDirDegrees,DateUTC
12:56 AM,60.1,19.9,21,30.22,10.0,NW,9.2,-,N/A,,Clear,320,2013-10-05 07:56:00
1:56 AM,57.0,19.0,23,30.23,10.0,West,6.9,-,N/A,,Clear,270,2013-10-05 08:56:00
2:56 AM,55.9,18.0,23,30.23,10.0,West,9.2,-,N/A,,Clear,260,2013-10-05 09:56:00
3:56 AM,57.9,19.0,22,30.24,10.0,NW,8.1,-,N/A,,Clear,310,2013-10-05 10:56:00
4:56 AM,60.1,19.0,20,30.24,10.0,North,9.2,-,N/A,,Clear,360,2013-10-05 11:56:00
5:56 AM,55.0,19.0,24,30.27,10.0,West,9.2,-,N/A,,Clear,280,2013-10-05 12:56:00
6:56 AM,55.0,19.0,24,29.61,10.0,NW,10.4,-,N/A,,Clear,310,2013-10-05 13:56:00
7:56 AM,57.9,19.0,22,29.63,10.0,WNW,8.1,-,N/A,,Clear,290,2013-10-05 14:56:00
8:56 AM,63.0,19.0,18,30.31,10.0,NW,11.5,-,N/A,,Clear,320,2013-10-05 15:56:00
9:56 AM,66.0,18.0,16,30.31,10.0,North,6.9,-,N/A,,Clear,350,2013-10-05 16:56:00
10:56 AM,70.0,15.1,12,30.30,10.0,NNE,10.4,-,N/A,,Clear,20,2013-10-05 17:56:00
11:56 AM,71.1,14.0,11,30.29,10.0,North,11.5,-,N/A,,Clear,350,2013-10-05 18:56:00
12:56 PM,73.9,12.0,9,30.26,10.0,NNW,11.5,-,N/A,,Clear,340,2013-10-05 19:56:00
1:56 PM,75.0,12.0,9,30.23,10.0,NNW,9.2,18.4,N/A,,Clear,340,2013-10-05 20:56:00
2:56 PM,77.0,12.0,8,30.20,10.0,North,12.7,-,N/A,,Clear,350,2013-10-05 21:56:00
3:56 PM,77.0,12.9,9,30.19,10.0,NNE,12.7,-,N/A,,Clear,20,2013-10-05 22:56:00
4:56 PM,77.0,12.9,9,30.18,10.0,North,10.4,-,N/A,,Clear,360,2013-10-05 23:56:00
5:56 PM,75.0,12.9,9,30.19,10.0,NNW,8.1,-,N/A,,Clear,340,2013-10-06 00:56:00
6:56 PM,72.0,12.9,10,30.19,7.0,NW,6.9,-,N/A,,Clear,320,2013-10-06 01:56:00
7:56 PM,68.0,12.9,12,30.20,10.0,West,11.5,-,N/A,,Clear,270,2013-10-06 02:56:00
8:56 PM,66.0,12.9,13,30.21,10.0,West,9.2,-,N/A,,Clear,260,2013-10-06 03:56:00
9:56 PM,63.0,12.9,14,30.22,10.0,West,11.5,-,N/A,,Clear,270,2013-10-06 04:56:00
10:56 PM,62.1,12.9,15,30.22,10.0,NW,6.9,-,N/A,,Clear,310,2013-10-06 05:56:00
11:56 PM,61.0,12.9,15,30.21,10.0,West,13.8,-,N/A,,Clear,270,2013-10-06 06:56:00